Regional Weather Roundup
Issued by NWS Upton, NY

Current Version | Previous Version | Text Only | Print | Product List | Glossary On
Versions: 1 2 3 4 5 6 7 8 9 10 11 12 13 14 15 16 17 18 19 20 21 22 23 24 25 26 27 28 29 30 31 32 33 34 35 36 37 38 39 40 41 42 43 44 45 46 47 48 49 50
000 ASUS41 KOKX 281708 RWROKX REGIONAL WEATHER ROUNDUP NATIONAL WEATHER SERVICE NEW YORK NY 100 PM EDT THU MAY 28 2015 NOTE: "FAIR" INDICATES FEW OR NO CLOUDS BELOW 12,000 FEET WITH NO SIGNIFICANT WEATHER AND/OR OBSTRUCTIONS TO VISIBILITY. NYZ071-072-176-178-NJZ106-104-281800- NEW YORK CITY METRO AREA CITY SKY/WX TMP DP RH WIND PRES REMARKS CENTRAL PARK MOSUNNY 83 67 58 VRB3 30.17F LAGUARDIA APRT PTSUNNY 80 66 62 S10 30.14F KENNEDY INTL PTSUNNY 74 62 66 S12 30.17F NEWARK/LIBERTY PTSUNNY 82 69 64 S8 30.14F BRNX BOT. GARD N/A 79 68 69 N1 30.16F TETERBORO MOSUNNY 81 68 64 VRB5 30.13F $$ NYZ177-179-078>081-281800- LONG ISLAND NEW YORK CITY SKY/WX TMP DP RH WIND PRES REMARKS FARMINGDALE CLOUDY 73 64 73 S9 30.17F ISLIP CLOUDY 73 64 73 SW10 30.16F SHIRLEY CLOUDY 71 64 78 S12 30.18F WESTHAMPTON CLOUDY 67 62 84 SW9G20 30.20F MONTAUK POINT N/A 67 61 81 SW8G16 30.21S $$ NYZ052-065-067-281800- HUDSON VALLEY CITY SKY/WX TMP DP RH WIND PRES REMARKS WHITE PLAINS MOSUNNY 78 68 71 S8 30.15F HAZE NEWBURGH N/A 82 70 65 W14 30.14F MONTGOMERY MOSUNNY 84 70 62 SW9 30.11F POUGHKEEPSIE SUNNY 84 65 52 SW12 30.11F ALBANY PTSUNNY 79 61 53 W9G21 30.09S $$ NJZ001-105-106-008-010-013-015-019>022-104-281800- NEW JERSEY CITY SKY/WX TMP DP RH WIND PRES REMARKS NEWARK/LIBERTY PTSUNNY 82 69 64 S8 30.14F TETERBORO MOSUNNY 81 68 64 VRB5 30.13F CALDWELL MOSUNNY 83 68 60 VRB3 30.15S MORRISTOWN PTSUNNY 86 72 62 SW9 30.15S HX 92 SOMERVILLE PTSUNNY 84 69 60 S7 30.13S SUSSEX MOSUNNY 83 66 56 VRB6 30.15F ANDOVER N/A 81 66 60 VRB5 30.16S TRENTON MOSUNNY 85 68 56 S10 30.15F MILLVILLE MOSUNNY 84 69 60 VRB5 30.18S ATLANTIC CITY MOSUNNY 83 68 60 S9 30.17F WRIGHTSTOWN MOSUNNY 85 70 61 SW6 30.13F HX 90 TOMS RIVER CLOUDY N/A N/A N/A NW6 30.15S BELMAR MOSUNNY 84 66 54 W6 30.16F $$ PAZ047>061-062-071-281800- EASTERN PENNSYLVANIA CITY SKY/WX TMP DP RH WIND PRES REMARKS PHILADELPHIA PTSUNNY 85 68 56 SW6 30.17S ALLENTOWN MOSUNNY 84 65 52 W6 30.16F SCRANTON PTSUNNY 80 60 50 SW8 30.17S $$ CTZ002-004>006-009-010-012-RIZ004-006-007-MAZ004-011-015-281800- SOUTHERN NEW ENGLAND IN CT CITY SKY/WX TMP DP RH WIND PRES REMARKS BRADLEY INTL PTSUNNY 79 66 64 S17 30.11F HARTFORD CLOUDY 76 66 71 S10G21 30.13F DANBURY MOSUNNY 78 67 68 S10 30.16F WTRBRY/OXFORD PTSUNNY 70 63 78 SW6 30.18S HAZE BRIDGEPORT CLOUDY 71 64 78 VRB6 30.16F MERIDEN CLOUDY 74 65 73 S10 30.15F NEW HAVEN CLOUDY 71 64 78 S6 30.16F CHESTER CLOUDY 72 64 78 S8 30.18F GROTON CLOUDY 68 62 81 S7 30.17F HAZE WILLIMANTIC MOSUNNY 77 65 66 S8 30.14F IN RI CITY SKY/WX TMP DP RH WIND PRES REMARKS PROVIDENCE PTSUNNY 76 65 68 S15G25 30.16F BLOCK ISLAND CLOUDY 63 55 77 SW16 30.21S WESTERLY CLOUDY 68 62 81 S10 30.19F IN MA CITY SKY/WX TMP DP RH WIND PRES REMARKS BOSTON MOSUNNY 82 65 56 S18 30.10F WORCESTER SUNNY 81 63 54 SW14 30.14F WESTFIELD SUNNY 81 68 64 S13G21 30.09F PROVINCETOWN CLOUDY 64 57 77 SW21G26 30.16F NANTUCKET CLOUDY 65 58 78 S16 30.21F $$ ANZ330-335-338-340-345-350-353-355-281800- COASTAL MARINE OBSERVATIONS STATION/POSITION TIME SKY/WX TEMP WIND PRES VSBY WAVE AIR SEA DIR/SP/G HT/PER (UTC) (F) (DEG/KT/KT) (MB) (MI) (FT/S) NY HARB ENTRANCE 1650 60 50 190/ 10/ 12 1021.4 3/ 6 4S FIRE IS 1603 57 N/A 4/ 6 20S FIRE ISLAND 1650 61 58 210/ 12/ 14 1022.0 4/ 6 GREAT SOUTH BAY 1600 64 67 240/ 12/ 16 N/A 23SW MTP 1650 58 54 220/ 10/ 12 1022.4 4/ 6 HUDSON CANYON NOT AVBL KINGS POINT 1600 72 58 190/ 9/ 10 1020.8 CENTRAL LI SOUND 1600 62 57 190/ 4/ 6 N/A EASTERN LI SOUND 1600 60 240/ 6/ 8 N/A ROBBINS REEF 1600 71 170/ 13/ 13 1020.1 $$ >>>>>>>>>>>>>>>>>>>>>>>>>>>> KEY <<<<<<<<<<<<<<<<<<<<<<<<<<< > < > SKY/WX - SKY CONDITION/PRESENT WEATHER < > TMP - TEMPERATURE IN FAHRENHEIT < > DP - DEWPOINT IN FAHRENHEIT < > RH - RELATIVE HUMIDITY IN PERCENT < > WIND - DIRECTION AND SPEED IN MPH < > PRES - MEAN SEA LEVEL PRESSURE IN INCHES OF HG < > WCI - WIND CHILL INDEX < > VSB - VISIBILITY IN MILES < > HX - HEAT INDEX < > TC - TEMPERATURE IN CELSIUS < > VRB - VARIABLE WIND DIRECTION < > < >>>>>>>>>>>>>>>>>>>>>>>>>>>> KEY <<<<<<<<<<<<<<<<<<<<<<<<<<<

USA.gov is the U.S. government's official web portal to all federal, state and local government web resources and services.